Regional Weather Roundup
Issued by NWS

Home | Current Version | Previous Version | Text Only | Print | Product List | Glossary Off
Versions: 1 2 3 4 5 6 7 8 9 10 11 12 13 14 15 16 17 18 19 20 21 22 23 24 25 26 27 28 29 30 31 32 33 34 35 36 37 38 39 40 41 42 43 44 45 46 47 48 49 50

000
ASUS45 KABQ 240201
RWRNM
WEATHER ROUNDUP FOR NEW MEXICO
NATIONAL WEATHER SERVICE ALBUQUERQUE NM
700 PM MST SUN NOV 23 2014

NOTE: "FAIR" MEANS FEW OR NO CLOUDS BELOW 12,000 FEET AGL WITH NO
       SIGNIFICANT WEATHER OR OBSTRUCTIONS TO VISION.

      THIS PRODUCT IS RELEASED AS TWO VERSIONS.  ONE VERSION NEAR
      THE TOP OF THE HOUR CONTAINING PRELIMINARY DATA FROM ALBUQUERQUE
      AND OTHER STATIONS.  A FINAL VERSION WITH ADDITIONAL DATA IS
      ISSUED ABOUT 10 MINUTES AFTER THE HOUR.

NMZ501-503-504-510>518-240300-
NORTHWEST PLATEAU/NORTHCENTRAL MOUNTAINS

CITY           SKY/WX    TMP DP  RH WIND       PRES   REMARKS
FARMINGTON     CLEAR     34  16  47 N14       30.06R WCI  25
LOS ALAMOS     CLEAR     32   9  37 NW8G18    29.94R WCI  25
SANTA FE       PTCLDY    31  12  45 NW5       29.93R WCI  26
TAOS           CLOUDY    25  21  86 SW6       29.93R WCI  18
ANGEL FIRE     CLOUDY    24  15  69 NW8       29.91R WCI  15

$$
NMZ402-403-502-505>509-240300-
WESTCENTRAL MOUNTAINS/SOUTHWEST MOUNTAINS

CITY           SKY/WX    TMP DP  RH WIND       PRES   REMARKS
GALLUP         CLEAR     31   1  28 NW10      30.11R WCI  22
SILVER CITY    MOCLDY    43  -4  14 NW13      30.04R

$$
NMZ407-409-411-412-240300-
SOUTHERN DESERTS

CITY           SKY/WX    TMP DP  RH WIND       PRES   REMARKS
LORDSBURG      FAIR      46  -6  11 NW15      30.04R
DEMING         MOCLDY    51  -4  10 NW16G23   30.01R
HOLLOMAN AFB   CLOUDY    50  -3  11 N13G26    29.98R
T OR C         MOCLDY    44  -1  15 N6        30.02R

$$
NMZ519>523-240300-
CENTRAL VALLEYS/CENTRAL HIGHLANDS

CITY           SKY/WX    TMP DP  RH WIND       PRES   REMARKS
ALBUQUERQUE    PTCLDY    40   9  28 N6        30.01R
DOUBLE EAGLE   CLEAR     36   9  32 W35G46    29.96R WCI  22
MORIARTY ARPT  FAIR      34  11  37 NW21G32   29.94S WCI  23
CLINES CORNERS CLEAR     29  12  49 NW20      29.90R WCI  16
BELEN          FAIR      39   8  27 NW18G24   30.02R WCI  30
SOCORRO        FAIR      45   1  16 NW14G32   29.99R

$$
NMZ524>526-539-540-240300-
SOUTHCENTRAL MOUNTAINS

CITY           SKY/WX    TMP DP  RH WIND       PRES   REMARKS
RUIDOSO        MOCLDY    32   1  27 NW14G23   29.99S WCI  22

$$
NMZ527>531-240300-
NORTHEAST HIGHLANDS/NORTHEAST PLAINS

CITY           SKY/WX    TMP DP  RH WIND       PRES   REMARKS
LAS VEGAS      CLOUDY    27  26  96 S7        29.92R WCI  19
RATON          CLOUDY    29  20  69 NW6       29.89R WCI  23
CLAYTON        MOCLDY    31  22  69 W15       29.87R WCI  20

$$
NMZ532>537-240300-
EASTCENTRAL PLAINS

CITY           SKY/WX    TMP DP  RH WIND       PRES   REMARKS
TUCUMCARI        N/A     36  33  89 W12       29.90R WCI  28
CANNON AFB     CLOUDY    37  31  79 NW10      29.91R WCI  29
CLOVIS AIRPORT CLOUDY    37  28  70 W10       29.91R WCI  30

$$
NMZ028-029-538-240300-
SOUTHEAST PLAINS

CITY           SKY/WX    TMP DP  RH WIND       PRES   REMARKS
ROSWELL        CLEAR     39  30  70 N10       29.98R WCI  32
CARLSBAD       CLOUDY    48  29  47 N17G25    29.94R
HOBBS          PTCLDY    39  30  70 N12       29.93R WCI  32


$$


USA.gov is the U.S. government's official web portal to all federal, state and local government web resources and services.